Weather History for Pine River, MN

Change the Weather History Date:

Wednesday, November 20, 2013

  Actual Average Record
Temperature  
Mean Temperature 42 °F -  
Max Temperature 48 °F 33 °F 50 °F (2001)
Min Temperature 35 °F 18 °F -5 °F (2014)
Degree Days  
Heating Degree Days 24    
Moisture  
Dew Point 30 °F    
Average Humidity 66    
Maximum Humidity 81    
Minimum Humidity 50    
Precipitation  
Precipitation 0.00 in - - ()
Sea Level Pressure  
Sea Level Pressure 29.88 in    
Wind  
Wind Speed 10 mph (SSE)    
Max Wind Speed 18 mph    
Max Gust Speed 24 mph    
Visibility 10 miles    
Events      
Averages and records for this station are not official NWS values.
T = Trace of Precipitation, MM = Missing Value Source: NWS Daily Summary

Daily Weather History Graph

Daily Weather History Graph

Search for Another Location

Airport:

Trip Planner

Search our weather history database for the weather conditions in past years. The results will help you decide how hot, cold, wet, or windy it might be!

Date:

Astronomy

Nov. 20, 2013 Rise Set
Actual Time 7:27 AM CST 4:38 PM CST
Civil Twilight 6:54 AM CST 5:11 PM CST
Nautical Twilight 6:16 AM CST 5:49 PM CST
Astronomical Twilight 5:40 AM CST 6:25 PM CST
Moon 7:22 PM CST (11/20) 9:53 AM CST (11/20)
Length of Visible Light 10h 17m
Length of Day
9h 10m
Waning Gibbous, 91% of the Moon is Illuminated
Nov 20
Waning Gibbous
Nov 25
Last Quarter
Dec 2
New
Dec 9
First Quarter
Dec 17
Full

Hourly Weather History & Observations

Time (CST) Temp. Windchill Dew Point Humidity Pressure Visibility Wind Dir Wind Speed Gust Speed Precip Events Conditions
12:13 AM 44.6 °F 36.9 °F 30.2 °F 57% 29.77 in 10.0 mi South 18.4 mph 24.2 mph N/A   Clear
12:33 AM 42.8 °F 35.4 °F 30.2 °F 61% 29.77 in 10.0 mi South 15.0 mph 20.7 mph N/A   Clear
12:53 AM 42.8 °F 36.6 °F 30.2 °F 61% 29.78 in 10.0 mi South 11.5 mph 18.4 mph N/A   Clear
1:11 AM 42.8 °F 35.1 °F 30.2 °F 61% 29.77 in 10.0 mi South 16.1 mph 21.9 mph N/A   Clear
1:32 AM 42.8 °F 36.6 °F 30.2 °F 61% 29.78 in 10.0 mi South 11.5 mph 17.3 mph N/A   Clear
1:53 AM 42.8 °F 36.6 °F 30.2 °F 61% 29.78 in 10.0 mi South 11.5 mph 16.1 mph N/A   Clear
2:13 AM 42.8 °F 36.6 °F 30.2 °F 61% 29.78 in 10.0 mi South 11.5 mph - N/A   Clear
2:33 AM 42.8 °F 38.0 °F 30.2 °F 61% 29.79 in 10.0 mi SSE 8.1 mph - N/A   Clear
2:53 AM 42.8 °F 37.0 °F 30.2 °F 61% 29.79 in 10.0 mi SSE 10.4 mph 16.1 mph N/A   Clear
3:13 AM 42.8 °F 36.2 °F 30.2 °F 61% 29.79 in 10.0 mi South 12.7 mph 18.4 mph N/A   Clear
3:33 AM 42.8 °F 37.0 °F 30.2 °F 61% 29.79 in 10.0 mi South 10.4 mph 17.3 mph N/A   Clear
3:53 AM 42.8 °F 37.5 °F 30.2 °F 61% 29.79 in 10.0 mi South 9.2 mph 19.6 mph N/A   Clear
4:13 AM 42.8 °F 36.6 °F 30.2 °F 61% 29.79 in 10.0 mi South 11.5 mph 16.1 mph N/A   Clear
4:33 AM 42.8 °F 37.0 °F 30.2 °F 61% 29.80 in 10.0 mi South 10.4 mph 16.1 mph N/A   Clear
4:53 AM 42.8 °F 36.6 °F 30.2 °F 61% 29.80 in 10.0 mi South 11.5 mph 18.4 mph N/A   Clear
5:12 AM 42.8 °F 37.0 °F 30.2 °F 61% 29.80 in 10.0 mi South 10.4 mph - N/A   Clear
5:32 AM 42.8 °F 38.0 °F 30.2 °F 61% 29.80 in 10.0 mi SSE 8.1 mph - N/A   Clear
5:52 AM 41.0 °F 36.4 °F 30.2 °F 65% 29.81 in 10.0 mi SSE 6.9 mph - N/A   Scattered Clouds
6:13 AM 41.0 °F 35.8 °F 30.2 °F 65% 29.81 in 10.0 mi South 8.1 mph - N/A   Mostly Cloudy
6:32 AM 41.0 °F 35.8 °F 30.2 °F 65% 29.82 in 10.0 mi South 8.1 mph - N/A   Overcast
6:53 AM 39.2 °F 34.2 °F 30.2 °F 70% 29.83 in 10.0 mi SSE 6.9 mph - N/A   Mostly Cloudy
7:13 AM 39.2 °F 35.9 °F 30.2 °F 70% 29.83 in 10.0 mi SSE 4.6 mph - N/A   Mostly Cloudy
7:33 AM 39.2 °F 35.0 °F 30.2 °F 70% 29.84 in 10.0 mi South 5.8 mph - N/A   Scattered Clouds
7:53 AM 39.2 °F 35.0 °F 30.2 °F 70% 29.84 in 10.0 mi SSE 5.8 mph - N/A   Clear
8:13 AM 39.2 °F 35.9 °F 30.2 °F 70% 29.85 in 10.0 mi SSE 4.6 mph - N/A   Clear
8:32 AM 39.2 °F 33.6 °F 30.2 °F 70% 29.85 in 10.0 mi SSE 8.1 mph - N/A   Clear
8:53 AM 39.2 °F 35.9 °F 30.2 °F 70% 29.86 in 10.0 mi South 4.6 mph - N/A   Clear
9:12 AM 41.0 °F 38.0 °F 30.2 °F 65% 29.86 in 10.0 mi South 4.6 mph - N/A   Clear
9:33 AM 42.8 °F 39.3 °F 30.2 °F 61% 29.87 in 10.0 mi SSE 5.8 mph - N/A   Clear
9:53 AM 42.8 °F 38.6 °F 30.2 °F 61% 29.87 in 10.0 mi SSE 6.9 mph - N/A   Clear
10:12 AM 42.8 °F 38.0 °F 30.2 °F 61% 29.88 in 10.0 mi South 8.1 mph - N/A   Clear
10:33 AM 42.8 °F 38.6 °F 30.2 °F 61% 29.89 in 10.0 mi SSE 6.9 mph - N/A   Clear
10:53 AM 42.8 °F 36.6 °F 30.2 °F 61% 29.88 in 10.0 mi South 11.5 mph - N/A   Clear
11:13 AM 44.6 °F 39.7 °F 30.2 °F 57% 29.88 in 10.0 mi SSE 9.2 mph - N/A   Clear
11:32 AM 44.6 °F 38.8 °F 30.2 °F 57% 29.88 in 10.0 mi SSE 11.5 mph - N/A   Clear
11:53 AM 46.4 °F 42.9 °F 30.2 °F 53% 29.87 in 10.0 mi South 6.9 mph - N/A   Clear
12:13 PM 48.2 °F - 30.2 °F 50% 29.87 in 10.0 mi SSE 8.1 mph - N/A   Clear
12:33 PM 46.4 °F 42.9 °F 30.2 °F 53% 29.87 in 10.0 mi South 6.9 mph - N/A   Clear
12:53 PM 46.4 °F 41.1 °F 30.2 °F 53% 29.87 in 10.0 mi SSE 11.5 mph - N/A   Clear
1:12 PM 46.4 °F 41.1 °F 30.2 °F 53% 29.86 in 10.0 mi SSE 11.5 mph - N/A   Clear
1:32 PM 48.2 °F - 30.2 °F 50% 29.86 in 10.0 mi South 10.4 mph - N/A   Clear
1:53 PM 48.2 °F - 30.2 °F 50% 29.86 in 10.0 mi South 10.4 mph - N/A   Clear
2:12 PM 46.4 °F 41.5 °F 30.2 °F 53% 29.86 in 10.0 mi SSE 10.4 mph - N/A   Clear
2:33 PM 48.2 °F - 32.0 °F 54% 29.86 in 10.0 mi SSE 8.1 mph - N/A   Clear
2:53 PM 46.4 °F 42.4 °F 32.0 °F 57% 29.87 in 10.0 mi SSE 8.1 mph - N/A   Clear
3:12 PM 46.4 °F 41.5 °F 30.2 °F 53% 29.88 in 10.0 mi SSE 10.4 mph - N/A   Clear
3:32 PM 44.6 °F 40.7 °F 30.2 °F 57% 29.88 in 10.0 mi SSE 6.9 mph - N/A   Clear
3:53 PM 44.6 °F 40.7 °F 30.2 °F 57% 29.88 in 10.0 mi SE 6.9 mph - N/A   Clear
4:12 PM 42.8 °F 39.3 °F 30.2 °F 61% 29.89 in 10.0 mi SE 5.8 mph - N/A   Clear
4:33 PM 41.0 °F 38.0 °F 30.2 °F 65% 29.89 in 10.0 mi SSE 4.6 mph - N/A   Clear
4:53 PM 39.2 °F 37.0 °F 30.2 °F 70% 29.90 in 10.0 mi SE 3.5 mph - N/A   Clear
5:12 PM 37.4 °F 33.8 °F 30.2 °F 75% 29.91 in 10.0 mi SE 4.6 mph - N/A   Clear
5:32 PM 37.4 °F 34.9 °F 30.2 °F 75% 29.92 in 10.0 mi SSE 3.5 mph - N/A   Clear
5:53 PM 35.6 °F 31.7 °F 30.2 °F 81% 29.93 in 10.0 mi SE 4.6 mph - N/A   Clear
6:12 PM 35.6 °F 29.9 °F 30.2 °F 81% 29.94 in 10.0 mi SSE 6.9 mph - N/A   Clear
6:33 PM 35.6 °F 29.9 °F 30.2 °F 81% 29.94 in 10.0 mi SSE 6.9 mph - N/A   Clear
6:53 PM 35.6 °F 31.7 °F 30.2 °F 81% 29.95 in 10.0 mi SSE 4.6 mph - N/A   Scattered Clouds
7:13 PM 37.4 °F 31.4 °F 30.2 °F 75% 29.95 in 10.0 mi South 8.1 mph - N/A   Mostly Cloudy
7:33 PM 37.4 °F 31.4 °F 30.2 °F 75% 29.96 in 10.0 mi South 8.1 mph - N/A   Mostly Cloudy
7:52 PM 39.2 °F 33.6 °F 30.2 °F 70% 29.96 in 10.0 mi South 8.1 mph - N/A   Mostly Cloudy
8:12 PM 39.2 °F 34.2 °F 30.2 °F 70% 29.97 in 10.0 mi South 6.9 mph - N/A   Mostly Cloudy
8:33 PM 37.4 °F 31.4 °F 30.2 °F 75% 29.97 in 10.0 mi South 8.1 mph - N/A   Overcast
8:53 PM 37.4 °F 32.8 °F 30.2 °F 75% 29.98 in 10.0 mi SSE 5.8 mph - N/A   Overcast
9:12 PM 37.4 °F 33.8 °F 30.2 °F 75% 29.99 in 10.0 mi SSE 4.6 mph - N/A   Overcast
9:32 PM 35.6 °F 31.7 °F 30.2 °F 81% 29.99 in 10.0 mi SSE 4.6 mph - N/A   Overcast
9:52 PM 37.4 °F 34.9 °F 30.2 °F 75% 30.00 in 10.0 mi SSE 3.5 mph - N/A   Overcast
10:12 PM 35.6 °F 31.7 °F 30.2 °F 81% 30.00 in 10.0 mi South 4.6 mph - N/A   Overcast
10:31 PM 35.6 °F - 30.2 °F 81% 30.01 in 10.0 mi Calm Calm - N/A   Overcast
10:52 PM 35.6 °F - 30.2 °F 81% 30.02 in 7.0 mi Calm Calm - N/A   Overcast
11:13 PM 35.6 °F - 30.2 °F 81% 30.03 in 10.0 mi Calm Calm - N/A   Overcast
11:33 PM 35.6 °F 32.8 °F 30.2 °F 81% 30.04 in 10.0 mi South 3.5 mph - N/A   Overcast
11:53 PM 35.6 °F 32.8 °F 30.2 °F 81% 30.04 in 10.0 mi NW 3.5 mph - N/A   Overcast